Home > Weather > Gatineau > Past weeks

Flag for Canada Weather for the Past 2 Weeks in Gatineau, Quebec, Canada

Now
39 °F

Clear.


Feels Like: 34 °F
Forecast: 39 / 62 °F
Wind: 8 mph from Northeast

Location: Ottawa Int'L. Ont.

Current Time: May 4, 2016 at 3:00:13 AM

Latest Report: May 4, 2016 at 2:00 AM


Visibility: 15 mi

Pressure: 29.83 "Hg

Humidity: 87%

Dew Point: 36 °F

Location of GatineauLocation

Historic Weather in Gatineau — Graph

°F

Gatineau Temperature Yesterday

Maximum temperature yesterday: 61 °F (at 4:00 PM)
Minimum temperature yesterday: 32 °F (at 4:00 AM)
Average temperature yesterday: 47 °F

High & Low Weather Summary for the Past Weeks

 TemperatureHumidityPressure
High72 °F (Apr 21, 3:00 PM)100% (Apr 22, 5:00 AM)30.38 "Hg (Apr 22, 5:00 AM)
Low27 °F (Apr 27, 6:00 AM)14% (Apr 20, 4:00 PM)29.78 "Hg (Apr 22, 7:00 AM)
Average45 °F49%30.07 "Hg
* Reported Apr 19 2:00 AM — May 4 2:00 AM, Gatineau, Weather by CustomWeather, © 2016

Note: Actual official high and low records may vary slightly from our data, if they occured in-between our weather recording intervals... More about our weather records

Advertising

Gatineau Weather History for the Previous 24 Hours

Scroll right to see more
 ConditionsComfort  
Time TempWeatherWind HumidityBarometerVisibility
2:00 AM
Wed, May 4
39 °FClear.8 mph87%29.83 "Hg15 mi
1:00 AM41 °FClear.8 mph81%29.83 "Hg15 mi
12:00 AM43 °FClear.7 mph76%29.83 "Hg15 mi
11:00 PM
Tue, May 3
46 °FClear.6 mph71%29.84 "Hg15 mi
10:00 PM46 °FClear.7 mph71%29.85 "Hg15 mi
9:00 PM48 °FPassing clouds.9 mph66%29.84 "Hg15 mi
8:00 PM52 °FPassing clouds.7 mph54%29.83 "Hg15 mi
7:00 PM57 °FPassing clouds.8 mph44%29.82 "Hg15 mi
6:00 PM59 °FPassing clouds.8 mph45%29.83 "Hg15 mi
5:00 PM59 °FPassing clouds.5 mph42%29.84 "Hg15 mi
4:00 PM61 °FScattered clouds.14 mph42%29.84 "Hg15 mi
3:00 PM59 °FScattered clouds.6 mph45%29.85 "Hg15 mi
2:00 PM55 °FPartly sunny.8 mph59%29.88 "Hg15 mi
1:00 PM57 °FPartly sunny.9 mph59%29.89 "Hg15 mi
12:00 PM55 °FScattered clouds.7 mph63%29.91 "Hg15 mi
11:00 AM52 °FScattered clouds.No wind67%29.93 "Hg15 mi
10:00 AM50 °FPassing clouds.3 mph67%29.96 "Hg15 mi
9:00 AM46 °FPassing clouds.6 mph87%29.97 "Hg15 mi
8:00 AM43 °FFog.No wind93%29.97 "Hg6 mi
7:00 AM34 °FFog.2 mph100%29.98 "Hg0 mi
6:00 AM32 °FFog.2 mph100%29.98 "Hg0 mi
5:00 AM32 °FFog.2 mph100%29.98 "Hg1 mi
4:00 AM32 °FIce fog.2 mph93%29.99 "Hg0 mi
3:00 AM37 °FFog.No wind100%29.98 "Hg5 mi
Weather by CustomWeather, © 2016

See weather overviewHow to use our weather pages